STARLINK-2472 (48130 NORAD) Tracking and Keplerian Element Data

This shows tracking and keplerian element data for the satellite.

Feedback or suggestion? Click here.




ElementValue
Catalog48130
NameSTARLINK-2472
Epoch Orbit1247
Epoch Day170.49992991
Epoch Year2021
RAAN356.773
Inclination53.0589
Eccentricity0.0001688
Argument of Perigee108.4194
Mean Anonmoly251.6979
Mean Motion15.06399555
Decay Rate6.58E-06
L11 48130U 21027AQ 21170.49992991 .00000658 00000-0 63066-4 0 9995
L22 48130 53.0589 356.7730 0001688 108.4194 251.6979 15.06399555 12470

Live tracking and technical data element details for STARLINK-2472 (NORAD 48130). STARLINK-2472 can be tracked NOW for your location showing map with azimuth and elevation plus other details from your city location.

Track the satellite on the map from your city or location and see movement details for azimuth, elevation, latitude, longitude, range, height, and movement on the map or in text.







IsCatalogInMostPopularTable: catalog: 48130, numindb: 36
Update: records affected: 1



GetName: 48130 STARLINK-2472

Hit Count: updated at: Mon, 21 Jun 2021 04:27:19 GMT